QPF
0.00 0.00 0.00 0.00 0.00 0.00 0.00 0.00 0.00 0.00 0.00 0.00 0.00 0.00 0.00 0.00 0.00 0.00 0.00 0.00 0.00 0.00 0.00 0.01 0.01 0.02 0.03 0.04 0.05 0.06 0.06 0.06 0.07 0.08 0.09 0.10 0.10 0.13 0.16 0.18 0.20 0.22 0.23 0.24
0.00 0.00 0.00 0.00 0.00 0.00 0.00 0.00 0.00 0.00 0.00 0.00 0.00 0.00 0.00 0.00 0.00 0.00 0.00 0.00 0.00 0.00 0.01 0.01 0.03 0.04 0.05 0.06 0.06 0.07 0.07 0.08 0.09 0.13 0.19 0.24 0.27 0.28 0.30 0.33 0.36 0.33 0.29 0.27
0.00 0.00 0.00 0.00 0.00 0.00 0.00 0.00 0.00 0.00 0.00 0.00 0.00 0.00 0.00 0.00 0.00 0.00 0.00 0.00 0.00 0.01 0.02 0.04 0.06 0.08 0.09 0.08 0.06 0.06 0.06 0.08 0.10 0.15 0.25 0.32 0.36 0.39 0.41 0.43 0.45 0.43 0.38 0.31
0.00 0.00 0.00 0.00 0.00 0.00 0.00 0.00 0.00 0.00 0.00 0.00 0.00 0.00 0.00 0.00 0.00 0.00 0.00 0.00 0.01 0.01 0.02 0.04 0.05 0.07 0.07 0.06 0.05 0.05 0.07 0.09 0.14 0.20 0.30 0.39 0.46 0.51 0.57 0.60 0.57 0.50 0.42 0.33
0.00 0.00 0.00 0.00 0.00 0.00 0.00 0.00 0.00 0.00 0.00 0.00 0.00 0.00 0.00 0.00 0.00 0.00 0.00 0.00 0.01 0.01 0.01 0.02 0.03 0.03 0.04 0.04 0.05 0.06 0.08 0.12 0.17 0.22 0.30 0.38 0.44 0.47 0.49 0.45 0.42 0.43 0.42 0.36
0.00 0.00 0.00 0.00 0.00 0.00 0.00 0.00 0.00 0.00 0.00 0.00 0.00 0.00 0.00 0.00 0.00 0.00 0.00 0.00 0.00 0.00 0.00 0.00 0.01 0.01 0.02 0.02 0.03 0.05 0.08 0.11 0.15 0.20 0.25 0.30 0.34 0.36 0.35 0.33 0.32 0.31 0.31 0.28
0.00 0.00 0.00 0.00 0.00 0.00 0.00 0.00 0.00 0.00 0.00 0.00 0.00 0.00 0.00 0.00 0.00 0.00 0.00 0.00 0.00 0.00 0.00 0.00 0.00 0.01 0.01 0.01 0.02 0.03 0.04 0.09 0.13 0.16 0.17 0.18 0.21 0.25 0.26 0.27 0.27 0.25 0.24 0.22
0.00 0.00 0.00 0.00 0.00 0.00 0.00 0.00 0.00 0.00 0.00 0.00 0.00 0.00 0.00 0.00 0.00 0.00 0.00 0.00 0.00 0.00 0.00 0.00 0.00 0.00 0.00 0.01 0.01 0.02 0.03 0.04 0.07 0.11 0.14 0.17 0.17 0.19 0.20 0.20 0.18 0.16 0.14 0.11
0.00 0.00 0.00 0.00 0.00 0.00 0.00 0.00 0.00 0.00 0.00 0.00 0.00 0.00 0.00 0.00 0.00 0.00 0.00 0.00 0.00 0.00 0.00 0.00 0.00 0.00 0.00 0.00 0.01 0.02 0.02 0.04 0.08 0.12 0.16 0.18 0.18 0.17 0.16 0.15 0.13 0.11 0.09 0.06
0.00 0.00 0.00 0.00 0.00 0.00 0.00 0.00 0.00 0.00 0.00 0.00 0.00 0.00 0.00 0.00 0.00 0.00 0.00 0.00 0.00 0.00 0.00 0.00 0.00 0.00 0.01 0.01 0.01 0.02 0.04 0.06 0.08 0.12 0.15 0.17 0.19 0.18 0.17 0.14 0.10 0.07 0.05 0.03
0.00 0.00 0.00 0.00 0.00 0.00 0.00 0.00 0.00 0.00 0.00 0.00 0.00 0.00 0.00 0.00 0.00 0.00 0.00 0.00 0.00 0.00 0.00 0.00 0.00 0.00 0.01 0.01 0.03 0.05 0.07 0.10 0.13 0.15 0.15 0.17 0.18 0.17 0.14 0.11 0.08 0.05 0.03 0.02
0.00 0.00 0.00 0.00 0.00 0.00 0.00 0.00 0.00 0.00 0.00 0.00 0.00 0.00 0.00 0.00 0.00 0.00 0.00 0.00 0.00 0.00 0.00 0.00 0.01 0.01 0.02 0.03 0.06 0.11 0.14 0.16 0.19 0.20 0.19 0.21 0.20 0.17 0.12 0.08 0.06 0.04 0.03 0.02
0.00 0.00 0.00 0.00 0.00 0.00 0.00 0.00 0.00 0.00 0.00 0.00 0.00 0.00 0.00 0.00 0.00 0.00 0.00 0.00 0.00 0.00 0.00 0.00 0.01 0.02 0.03 0.07 0.12 0.15 0.21 0.23 0.26 0.24 0.22 0.22 0.21 0.17 0.12 0.08 0.06 0.04 0.02 0.01
0.00 0.00 0.00 0.00 0.00 0.00 0.00 0.00 0.00 0.00 0.00 0.00 0.00 0.00 0.00 0.00 0.00 0.00 0.00 0.00 0.00 0.00 0.00 0.00 0.02 0.03 0.06 0.10 0.13 0.16 0.21 0.27 0.30 0.32 0.36 0.32 0.27 0.23 0.17 0.12 0.09 0.05 0.02 0.01
0.00 0.00 0.00 0.00 0.00 0.00 0.00 0.00 0.00 0.00 0.00 0.00 0.00 0.00 0.00 0.00 0.00 0.00 0.00 0.00 0.00 0.00 0.00 0.00 0.01 0.03 0.07 0.10 0.14 0.18 0.21 0.22 0.24 0.27 0.34 0.33 0.27 0.23 0.18 0.12 0.08 0.05 0.02 0.01
0.00 0.00 0.00 0.00 0.00 0.00 0.00 0.00 0.00 0.00 0.00 0.00 0.00 0.00 0.00 0.00 0.00 0.00 0.00 0.00 0.00 0.00 0.00 0.00 0.01 0.02 0.06 0.09 0.11 0.13 0.14 0.14 0.13 0.14 0.18 0.21 0.19 0.17 0.14 0.08 0.05 0.03 0.01 0.00
0.00 0.00 0.00 0.00 0.00 0.00 0.00 0.00 0.00 0.00 0.00 0.00 0.00 0.00 0.00 0.00 0.00 0.00 0.00 0.00 0.00 0.00 0.00 0.00 0.01 0.02 0.03 0.03 0.05 0.06 0.07 0.07 0.09 0.11 0.12 0.14 0.15 0.13 0.10 0.05 0.03 0.02 0.01 0.00
0.00 0.00 0.00 0.00 0.00 0.00 0.00 0.00 0.00 0.00 0.00 0.00 0.00 0.00 0.00 0.00 0.00 0.00 0.00 0.00 0.00 0.00 0.00 0.00 0.00 0.01 0.01 0.01 0.02 0.02 0.03 0.05 0.07 0.07 0.09 0.11 0.10 0.11 0.09 0.06 0.04 0.03 0.01 0.00
0.00 0.00 0.00 0.00 0.00 0.00 0.00 0.00 0.00 0.00 0.00 0.00 0.00 0.00 0.00 0.00 0.00 0.00 0.00 0.00 0.00 0.00 0.00 0.00 0.00 0.00 0.00 0.00 0.00 0.01 0.02 0.04 0.06 0.07 0.08 0.09 0.08 0.08 0.08 0.07 0.04 0.02 0.02 0.01
0.00 0.00 0.00 0.00 0.00 0.00 0.00 0.00 0.00 0.00 0.00 0.00 0.00 0.00 0.00 0.00 0.00 0.00 0.00 0.00 0.00 0.00 0.00 0.00 0.00 0.00 0.00 0.00 0.00 0.01 0.02 0.03 0.05 0.08 0.08 0.06 0.06 0.06 0.07 0.07 0.05 0.03 0.02 0.01
0.00 0.00 0.00 0.00 0.00 0.00 0.00 0.00 0.00 0.00 0.00 0.00 0.00 0.00 0.00 0.00 0.00 0.00 0.00 0.00 0.00 0.00 0.00 0.00 0.00 0.00 0.00 0.00 0.00 0.00 0.01 0.03 0.05 0.06 0.06 0.05 0.04 0.04 0.05 0.05 0.04 0.03 0.02 0.01
0.00 0.00 0.00 0.00 0.00 0.00 0.00 0.00 0.00 0.00 0.00 0.00 0.00 0.00 0.00 0.00 0.00 0.00 0.00 0.00 0.00 0.00 0.00 0.00 0.00 0.00 0.00 0.00 0.00 0.00 0.01 0.03 0.03 0.04 0.06 0.05 0.04 0.02 0.02 0.03 0.04 0.03 0.01 0.00
0.00 0.00 0.00 0.00 0.00 0.00 0.00 0.00 0.00 0.00 0.00 0.00 0.00 0.00 0.00 0.00 0.00 0.00 0.00 0.00 0.00 0.00 0.00 0.00 0.00 0.00 0.00 0.00 0.00 0.01 0.01 0.02 0.02 0.03 0.05 0.05 0.03 0.01 0.01 0.03 0.03 0.02 0.01 0.01
0.00 0.00 0.00 0.00 0.00 0.00 0.00 0.00 0.00 0.00 0.00 0.00 0.00 0.00 0.00 0.00 0.00 0.00 0.00 0.00 0.00 0.00 0.00 0.00 0.00 0.00 0.00 0.00 0.00 0.01 0.01 0.01 0.02 0.04 0.05 0.04 0.03 0.02 0.01 0.03 0.03 0.03 0.01 0.00
0.00 0.00 0.00 0.00 0.00 0.00 0.00 0.00 0.00 0.00 0.00 0.00 0.00 0.00 0.00 0.00 0.00 0.00 0.00 0.00 0.00 0.00 0.00 0.00 0.00 0.00 0.00 0.00 0.00 0.00 0.01 0.01 0.02 0.04 0.03 0.02 0.02 0.02 0.02 0.02 0.03 0.03 0.03 0.01
0.00 0.01 0.01 0.01 0.02 0.01 0.01 0.00 0.00 0.00 0.00 0.00 0.00 0.00 0.01 0.00 0.00 0.00 0.00 0.00 0.00 0.00 0.00 0.00 0.00 0.00 0.00 0.00 0.00 0.00 0.01 0.01 0.03 0.03 0.03 0.02 0.01 0.02 0.02 0.01 0.01 0.00 0.01 0.00
MSLP
1013.14 1013.45 1013.64 1013.74 1013.77 1013.75 1013.72 1013.67 1013.60 1013.49 1013.31 1013.05 1012.71 1012.29 1011.82 1011.35 1010.91 1010.54 1010.26 1010.06 1009.94 1009.87 1009.85 1009.84 1009.85 1009.89 1009.96 1010.08 1010.24 1010.47 1010.72 1010.99 1011.25 1011.46 1011.63 1011.75 1011.83 1011.90 1011.99 1012.12 1012.29 1012.49 1012.72 1012.94
1013.41 1013.64 1013.78 1013.83 1013.83 1013.80 1013.78 1013.76 1013.72 1013.65 1013.52 1013.30 1012.99 1012.61 1012.18 1011.74 1011.34 1010.99 1010.74 1010.56 1010.44 1010.37 1010.32 1010.26 1010.20 1010.15 1010.12 1010.13 1010.19 1010.32 1010.51 1010.73 1010.96 1011.18 1011.38 1011.53 1011.67 1011.79 1011.93 1012.10 1012.30 1012.54 1012.78 1013.01
1013.60 1013.76 1013.83 1013.84 1013.82 1013.80 1013.80 1013.82 1013.83 1013.80 1013.70 1013.51 1013.22 1012.85 1012.43 1012.01 1011.62 1011.31 1011.08 1010.94 1010.85 1010.80 1010.74 1010.66 1010.55 1010.43 1010.30 1010.21 1010.17 1010.20 1010.30 1010.46 1010.66 1010.88 1011.09 1011.28 1011.47 1011.65 1011.84 1012.06 1012.30 1012.57 1012.82 1013.05
1013.72 1013.80 1013.81 1013.79 1013.77 1013.78 1013.83 1013.90 1013.97 1013.98 1013.91 1013.73 1013.43 1013.05 1012.61 1012.17 1011.78 1011.48 1011.27 1011.16 1011.11 1011.08 1011.04 1010.96 1010.83 1010.66 1010.46 1010.28 1010.14 1010.07 1010.08 1010.18 1010.33 1010.53 1010.75 1010.98 1011.21 1011.44 1011.69 1011.96 1012.24 1012.53 1012.80 1013.04
1013.79 1013.79 1013.76 1013.73 1013.73 1013.80 1013.91 1014.05 1014.18 1014.24 1014.19 1014.00 1013.68 1013.25 1012.77 1012.29 1011.86 1011.54 1011.33 1011.24 1011.21 1011.22 1011.21 1011.15 1011.02 1010.81 1010.57 1010.31 1010.08 1009.92 1009.85 1009.87 1009.98 1010.15 1010.37 1010.61 1010.88 1011.16 1011.45 1011.75 1012.07 1012.38 1012.67 1012.91
1013.81 1013.75 1013.68 1013.67 1013.72 1013.85 1014.05 1014.28 1014.47 1014.58 1014.54 1014.34 1013.98 1013.49 1012.94 1012.38 1011.90 1011.53 1011.30 1011.20 1011.19 1011.23 1011.26 1011.22 1011.09 1010.88 1010.61 1010.30 1010.01 1009.77 1009.62 1009.57 1009.62 1009.76 1009.96 1010.21 1010.49 1010.80 1011.12 1011.45 1011.79 1012.11 1012.41 1012.66
1013.78 1013.68 1013.61 1013.62 1013.73 1013.94 1014.23 1014.55 1014.81 1014.96 1014.94 1014.72 1014.31 1013.76 1013.12 1012.48 1011.92 1011.49 1011.22 1011.10 1011.09 1011.15 1011.20 1011.19 1011.09 1010.89 1010.60 1010.27 1009.93 1009.63 1009.42 1009.31 1009.31 1009.40 1009.58 1009.82 1010.11 1010.42 1010.74 1011.08 1011.41 1011.73 1012.03 1012.28
1013.72 1013.60 1013.54 1013.59 1013.76 1014.05 1014.42 1014.80 1015.13 1015.31 1015.30 1015.07 1014.62 1014.00 1013.29 1012.57 1011.93 1011.44 1011.11 1010.96 1010.94 1011.00 1011.08 1011.10 1011.03 1010.85 1010.58 1010.24 1009.88 1009.55 1009.29 1009.14 1009.09 1009.15 1009.30 1009.51 1009.78 1010.07 1010.38 1010.69 1011.00 1011.30 1011.58 1011.82
1013.63 1013.51 1013.48 1013.56 1013.79 1014.13 1014.56 1014.99 1015.34 1015.55 1015.54 1015.29 1014.81 1014.15 1013.39 1012.61 1011.91 1011.36 1010.99 1010.80 1010.77 1010.83 1010.92 1010.97 1010.93 1010.79 1010.54 1010.22 1009.87 1009.54 1009.26 1009.08 1009.01 1009.04 1009.15 1009.34 1009.57 1009.83 1010.10 1010.37 1010.63 1010.89 1011.14 1011.36
1013.54 1013.44 1013.43 1013.55 1013.80 1014.16 1014.60 1015.04 1015.39 1015.59 1015.57 1015.31 1014.81 1014.13 1013.35 1012.54 1011.82 1011.23 1010.84 1010.63 1010.59 1010.65 1010.75 1010.82 1010.82 1010.72 1010.51 1010.23 1009.91 1009.60 1009.33 1009.16 1009.07 1009.09 1009.18 1009.34 1009.54 1009.75 1009.97 1010.18 1010.39 1010.59 1010.79 1010.97
1013.46 1013.40 1013.42 1013.55 1013.79 1014.13 1014.52 1014.92 1015.23 1015.38 1015.33 1015.06 1014.56 1013.89 1013.11 1012.32 1011.61 1011.03 1010.64 1010.43 1010.38 1010.45 1010.56 1010.66 1010.69 1010.63 1010.48 1010.24 1009.97 1009.70 1009.48 1009.33 1009.26 1009.28 1009.37 1009.51 1009.68 1009.86 1010.03 1010.19 1010.33 1010.47 1010.61 1010.76
1013.44 1013.42 1013.46 1013.57 1013.76 1014.03 1014.33 1014.63 1014.85 1014.93 1014.83 1014.54 1014.04 1013.40 1012.67 1011.94 1011.27 1010.74 1010.37 1010.19 1010.15 1010.23 1010.35 1010.47 1010.53 1010.51 1010.41 1010.24 1010.03 1009.82 1009.65 1009.54 1009.51 1009.56 1009.67 1009.82 1009.98 1010.13 1010.27 1010.38 1010.47 1010.56 1010.64 1010.74
1013.50 1013.52 1013.55 1013.62 1013.73 1013.88 1014.06 1014.21 1014.30 1014.28 1014.11 1013.79 1013.31 1012.71 1012.05 1011.39 1010.81 1010.35 1010.04 1009.89 1009.88 1009.98 1010.11 1010.25 1010.34 1010.35 1010.29 1010.18 1010.03 1009.88 1009.78 1009.73 1009.75 1009.84 1009.99 1010.16 1010.34 1010.50 1010.62 1010.72 1010.78 1010.83 1010.88 1010.94
1013.63 1013.67 1013.69 1013.69 1013.69 1013.70 1013.71 1013.70 1013.64 1013.50 1013.25 1012.88 1012.42 1011.87 1011.29 1010.73 1010.25 1009.88 1009.65 1009.55 1009.58 1009.69 1009.85 1009.99 1010.10 1010.14 1010.12 1010.05 1009.96 1009.87 1009.82 1009.83 1009.91 1010.06 1010.25 1010.46 1010.67 1010.86 1011.01 1011.11 1011.17 1011.21 1011.25 1011.29
1013.81 1013.85 1013.83 1013.75 1013.63 1013.49 1013.34 1013.15 1012.93 1012.66 1012.32 1011.92 1011.46 1010.96 1010.46 1010.01 1009.63 1009.36 1009.21 1009.17 1009.25 1009.38 1009.55 1009.71 1009.83 1009.89 1009.90 1009.86 1009.81 1009.76 1009.76 1009.82 1009.95 1010.13 1010.37 1010.63 1010.89 1011.13 1011.32 1011.46 1011.56 1011.62 1011.67 1011.72
1013.96 1013.99 1013.91 1013.76 1013.53 1013.25 1012.94 1012.60 1012.23 1011.84 1011.42 1010.97 1010.51 1010.06 1009.64 1009.27 1008.98 1008.80 1008.73 1008.76 1008.87 1009.04 1009.23 1009.40 1009.54 1009.62 1009.64 1009.63 1009.60 1009.58 1009.61 1009.69 1009.84 1010.06 1010.33 1010.64 1010.94 1011.23 1011.48 1011.69 1011.84 1011.95 1012.04 1012.12
1014.03 1014.02 1013.90 1013.67 1013.35 1012.96 1012.53 1012.07 1011.58 1011.09 1010.60 1010.12 1009.66 1009.23 1008.86 1008.56 1008.35 1008.24 1008.23 1008.31 1008.46 1008.66 1008.88 1009.07 1009.22 1009.32 1009.37 1009.37 1009.36 1009.36 1009.39 1009.48 1009.63 1009.86 1010.14 1010.47 1010.81 1011.15 1011.46 1011.73 1011.95 1012.13 1012.28 1012.41
1013.96 1013.91 1013.74 1013.47 1013.10 1012.65 1012.14 1011.60 1011.04 1010.49 1009.94 1009.42 1008.95 1008.52 1008.17 1007.90 1007.73 1007.66 1007.69 1007.81 1008.00 1008.23 1008.47 1008.69 1008.88 1009.01 1009.09 1009.12 1009.13 1009.13 1009.16 1009.24 1009.37 1009.58 1009.85 1010.17 1010.53 1010.89 1011.25 1011.58 1011.88 1012.14 1012.36 1012.55
1013.75 1013.66 1013.48 1013.19 1012.81 1012.34 1011.81 1011.24 1010.65 1010.05 1009.47 1008.91 1008.41 1007.96 1007.59 1007.32 1007.15 1007.08 1007.12 1007.26 1007.46 1007.72 1007.99 1008.26 1008.49 1008.67 1008.80 1008.87 1008.91 1008.93 1008.96 1009.02 1009.13 1009.30 1009.53 1009.82 1010.16 1010.53 1010.91 1011.29 1011.65 1011.97 1012.27 1012.54
1013.45 1013.35 1013.17 1012.91 1012.56 1012.12 1011.61 1011.05 1010.45 1009.83 1009.22 1008.62 1008.07 1007.57 1007.15 1006.82 1006.61 1006.51 1006.52 1006.63 1006.83 1007.10 1007.41 1007.73 1008.02 1008.27 1008.47 1008.62 1008.71 1008.77 1008.81 1008.86 1008.94 1009.07 1009.25 1009.50 1009.80 1010.15 1010.53 1010.92 1011.32 1011.71 1012.07 1012.41
1013.16 1013.08 1012.95 1012.74 1012.45 1012.08 1011.62 1011.09 1010.50 1009.87 1009.21 1008.56 1007.94 1007.36 1006.85 1006.44 1006.13 1005.95 1005.89 1005.96 1006.13 1006.39 1006.72 1007.08 1007.44 1007.78 1008.07 1008.31 1008.48 1008.61 1008.69 1008.76 1008.83 1008.93 1009.06 1009.25 1009.50 1009.81 1010.16 1010.56 1010.97 1011.40 1011.82 1012.22
1013.02 1013.00 1012.94 1012.81 1012.60 1012.29 1011.89 1011.39 1010.81 1010.16 1009.46 1008.75 1008.03 1007.34 1006.72 1006.18 1005.75 1005.45 1005.29 1005.26 1005.38 1005.61 1005.93 1006.32 1006.74 1007.17 1007.56 1007.90 1008.19 1008.40 1008.56 1008.68 1008.77 1008.86 1008.96 1009.11 1009.30 1009.56 1009.87 1010.24 1010.66 1011.10 1011.57 1012.03
1013.16 1013.22 1013.24 1013.20 1013.06 1012.81 1012.45 1011.97 1011.38 1010.70 1009.94 1009.14 1008.32 1007.52 1006.76 1006.08 1005.50 1005.06 1004.76 1004.62 1004.63 1004.79 1005.08 1005.48 1005.93 1006.42 1006.91 1007.37 1007.77 1008.10 1008.37 1008.56 1008.71 1008.82 1008.92 1009.04 1009.19 1009.40 1009.67 1010.01 1010.41 1010.86 1011.35 1011.86
1013.63 1013.79 1013.89 1013.91 1013.82 1013.60 1013.25 1012.76 1012.13 1011.40 1010.58 1009.70 1008.78 1007.86 1006.97 1006.15 1005.42 1004.82 1004.37 1004.09 1003.97 1004.03 1004.24 1004.60 1005.05 1005.58 1006.13 1006.69 1007.20 1007.66 1008.04 1008.34 1008.57 1008.74 1008.87 1008.99 1009.12 1009.30 1009.53 1009.84 1010.22 1010.67 1011.17 1011.71
1014.43 1014.67 1014.83 1014.87 1014.78 1014.55 1014.16 1013.63 1012.95 1012.15 1011.27 1010.31 1009.31 1008.30 1007.31 1006.37 1005.52 1004.78 1004.18 1003.74 1003.47 1003.39 1003.49 1003.75 1004.16 1004.67 1005.26 1005.87 1006.48 1007.05 1007.55 1007.97 1008.30 1008.55 1008.74 1008.89 1009.03 1009.19 1009.40 1009.68 1010.04 1010.48 1010.99 1011.55
1015.45 1015.73 1015.90 1015.92 1015.78 1015.47 1015.01 1014.39 1013.64 1012.79 1011.84 1010.84 1009.80 1008.75 1007.71 1006.71 1005.77 1004.92 1004.19 1003.61 1003.19 1002.95 1002.89 1003.03 1003.33 1003.78 1004.34 1004.97 1005.63 1006.28 1006.88 1007.40 1007.84 1008.19 1008.45 1008.66 1008.83 1009.01 1009.22 1009.48 1009.83 1010.25 1010.76 1011.33
Thickness
5764 5763 5757 5759 5764 5763 5760 5759 5759 5766 5777 5775 5773 5775 5781 5787 5791 5791 5793 5795 5795 5795 5798 5799 5798 5797 5795 5792 5789 5786 5783 5781 5777 5774 5771 5767 5766 5765 5764 5760 5756 5753 5751 5749
5755 5750 5757 5762 5761 5759 5756 5752 5755 5762 5770 5768 5764 5768 5774 5775 5774 5775 5777 5778 5781 5781 5783 5784 5785 5785 5784 5782 5781 5779 5778 5776 5773 5771 5768 5765 5761 5760 5757 5753 5748 5745 5742 5739
5746 5751 5760 5757 5754 5752 5752 5750 5749 5749 5760 5767 5760 5760 5764 5768 5770 5769 5769 5768 5769 5768 5768 5771 5772 5773 5774 5773 5772 5772 5772 5771 5769 5767 5763 5759 5754 5751 5748 5744 5740 5737 5732 5729
5745 5752 5752 5750 5748 5748 5743 5752 5748 5745 5743 5747 5750 5738 5759 5763 5759 5758 5758 5759 5759 5759 5760 5760 5760 5761 5762 5763 5763 5762 5762 5761 5760 5759 5755 5750 5746 5743 5743 5739 5735 5731 5726 5722
5738 5745 5743 5740 5743 5745 5743 5748 5744 5742 5739 5737 5746 5739 5753 5755 5748 5747 5748 5749 5750 5750 5750 5749 5750 5751 5752 5753 5753 5753 5752 5751 5750 5748 5747 5743 5741 5741 5739 5735 5729 5725 5720 5715
5740 5748 5746 5744 5747 5745 5744 5740 5740 5739 5735 5722 5736 5728 5735 5751 5743 5739 5738 5739 5740 5741 5741 5741 5742 5742 5742 5743 5743 5742 5740 5739 5738 5736 5735 5733 5732 5731 5729 5725 5721 5717 5713 5709
5729 5739 5746 5747 5737 5740 5736 5723 5714 5715 5720 5723 5732 5720 5731 5742 5738 5733 5730 5731 5733 5733 5732 5732 5731 5731 5731 5731 5730 5729 5728 5727 5726 5725 5723 5722 5721 5720 5718 5716 5712 5708 5704 5701
5714 5718 5736 5740 5734 5726 5726 5717 5699 5687 5699 5714 5723 5718 5734 5736 5733 5729 5726 5725 5725 5725 5725 5724 5724 5723 5722 5721 5719 5718 5715 5713 5712 5711 5710 5709 5708 5708 5707 5705 5703 5699 5696 5694
5717 5716 5734 5735 5737 5730 5718 5717 5718 5700 5702 5700 5715 5727 5732 5728 5723 5722 5722 5720 5719 5719 5718 5717 5716 5715 5714 5712 5709 5706 5703 5699 5697 5695 5693 5692 5692 5692 5692 5691 5690 5689 5686 5685
5727 5713 5729 5731 5730 5726 5724 5719 5708 5697 5683 5688 5708 5716 5718 5719 5717 5719 5717 5716 5715 5714 5712 5710 5708 5706 5704 5702 5698 5694 5689 5685 5682 5679 5676 5676 5675 5675 5675 5675 5675 5675 5675 5674
5730 5714 5720 5723 5717 5717 5715 5711 5705 5702 5695 5682 5685 5706 5726 5718 5715 5713 5713 5713 5710 5707 5705 5703 5700 5698 5695 5691 5686 5681 5676 5671 5667 5663 5660 5659 5658 5657 5657 5659 5660 5661 5662 5663
5727 5719 5710 5720 5728 5722 5714 5708 5702 5686 5684 5688 5681 5696 5729 5718 5713 5709 5707 5707 5706 5702 5700 5696 5693 5688 5684 5679 5674 5669 5663 5658 5654 5650 5647 5644 5643 5642 5641 5642 5645 5648 5649 5651
5721 5707 5696 5706 5711 5711 5706 5708 5703 5697 5688 5683 5679 5693 5721 5712 5708 5708 5705 5702 5699 5695 5692 5689 5685 5679 5674 5669 5663 5658 5653 5648 5643 5640 5637 5634 5631 5629 5628 5629 5632 5635 5636 5638
5717 5706 5697 5691 5702 5710 5704 5705 5702 5691 5682 5684 5688 5695 5707 5706 5703 5703 5702 5698 5694 5690 5686 5682 5677 5672 5666 5660 5654 5650 5645 5641 5636 5633 5629 5625 5622 5620 5618 5618 5620 5622 5625 5627
5713 5703 5706 5708 5711 5708 5703 5702 5701 5693 5688 5682 5688 5691 5697 5700 5698 5697 5694 5690 5687 5684 5680 5676 5671 5666 5660 5654 5648 5644 5640 5635 5631 5627 5624 5620 5617 5615 5613 5612 5612 5613 5615 5619
5708 5699 5701 5700 5705 5705 5700 5701 5699 5696 5695 5691 5688 5689 5701 5701 5696 5689 5685 5682 5680 5678 5676 5672 5667 5662 5656 5650 5645 5640 5635 5632 5629 5624 5620 5618 5614 5612 5609 5608 5607 5607 5609 5612
5708 5696 5689 5692 5701 5695 5690 5704 5702 5700 5701 5694 5685 5691 5699 5693 5688 5684 5681 5678 5676 5674 5671 5667 5663 5658 5653 5648 5642 5637 5634 5631 5627 5623 5620 5616 5613 5610 5608 5607 5605 5604 5604 5606
5698 5691 5687 5691 5688 5674 5703 5716 5706 5698 5700 5700 5696 5695 5693 5690 5687 5683 5679 5675 5672 5670 5667 5664 5660 5656 5651 5646 5641 5636 5633 5629 5626 5622 5620 5616 5613 5610 5607 5606 5604 5602 5602 5601
5697 5688 5688 5686 5681 5688 5702 5707 5702 5690 5689 5698 5694 5692 5690 5689 5680 5680 5682 5675 5670 5667 5664 5661 5657 5653 5648 5643 5639 5634 5631 5628 5624 5621 5618 5616 5613 5610 5607 5604 5602 5600 5598 5597
5689 5686 5682 5680 5666 5668 5691 5700 5697 5684 5677 5695 5691 5684 5682 5678 5666 5675 5680 5673 5667 5663 5659 5655 5653 5648 5643 5640 5636 5631 5629 5626 5623 5621 5618 5615 5611 5609 5606 5603 5600 5598 5596 5594
5686 5680 5676 5672 5668 5679 5694 5690 5685 5663 5670 5679 5678 5676 5674 5672 5670 5675 5674 5668 5663 5659 5655 5651 5647 5643 5639 5637 5632 5628 5627 5625 5623 5621 5617 5614 5610 5608 5605 5601 5598 5596 5594 5592
5680 5678 5673 5668 5659 5667 5682 5675 5660 5658 5666 5667 5668 5669 5669 5670 5672 5671 5668 5663 5658 5654 5650 5647 5641 5638 5636 5633 5629 5625 5624 5624 5621 5618 5614 5611 5608 5607 5604 5599 5596 5594 5592 5589
5679 5678 5671 5665 5664 5670 5666 5658 5656 5653 5652 5656 5659 5663 5664 5663 5664 5665 5664 5661 5656 5651 5648 5644 5639 5635 5633 5630 5627 5624 5623 5621 5618 5615 5612 5609 5606 5604 5602 5598 5596 5593 5591 5592
5678 5672 5660 5653 5657 5651 5648 5644 5640 5639 5640 5645 5650 5654 5656 5656 5658 5659 5659 5657 5653 5648 5645 5641 5636 5632 5629 5627 5625 5623 5622 5619 5616 5613 5610 5607 5604 5602 5601 5598 5597 5595 5593 5593
5655 5651 5641 5636 5635 5629 5626 5618 5618 5620 5624 5628 5635 5641 5644 5647 5649 5651 5651 5652 5650 5646 5642 5638 5634 5630 5628 5626 5623 5621 5619 5616 5613 5611 5608 5607 5605 5603 5600 5598 5596 5595 5594 5593
5625 5616 5609 5604 5596 5594 5594 5594 5596 5598 5601 5606 5612 5619 5625 5628 5632 5637 5642 5645 5645 5642 5638 5634 5632 5629 5626 5623 5620 5619 5617 5614 5611 5608 5607 5606 5605 5602 5599 5596 5591 5581 5583 5579